Погода в Яунде

Камерун     3°48′53″N   11°31′52″E
темп.,
°C
ветер,
м/с
пор.,
м/с
влажн.,
%
обл.,
%
осадки,
мм/ч
давл.,
гПа
погр.,
м
9 августа, вт
вт901:00+20з279996 0.8 1014425
04:00+20зюз169995 0.1 1013416
07:00+20юз149897 0.2 1015304
10:00+25з227110 0.1 1015810
13:00+27зюз1165100 1.2 10121100
16:00+24з238277 1.1 1011496
19:00+21з279895 1.9 1013284
22:00+19з289980 0.0 1016359
10 августа, ср
ср1001:00+20з2794100 0.0 1015430
04:00+20з2795100 0.0 1013470
07:00+20з2693100 0.1 1015449
10:00+24з2375100 0.0 1015769
13:00+26зюз237197 1.7 10121037
16:00+24зюз248358 2.2 1010763
19:00+20з2898100 3.4 1012416
22:00+20зюз2896100 0.0 1015474
11 августа, чт
чт1101:00+19зюз2897100 0.0 1013479
04:00+19з299698 0.0 1013460
07:00+20з3992100 0.0 1014535
10:00+22з378599 0.1 1015681
13:00+23з358577 0.8 1013806
16:00+23з368580 2.3 1012730
19:00+20з2994100 2.4 1013576
22:00+20з21094100 0.0 1014607
12 августа, пт
пт1201:00+20зюз2896100 0.1 1014614
04:00+19з2997100 0.0 1013534
07:00+19з2990100 0.1 1014588
10:00+21з2891100 0.1 1015664
13:00+25з356962 0.4 10121167
16:00+25зюз357431 1.3 1011952
19:00+20зюз299372 1.3 1013547
22:00+20зюз2990100 0.0 1015637
13 августа, сб
сб1301:00+20зюз2993100 0.1 1014671
04:00+20зюз2993100 0.1 1014692
07:00+20з2994100 0.1 1015682
10:00+20зюз2993100 0.2 1016635
13:00+23зюз2680100 0.3 1014786
16:00+21зюз2109082 0.1 1013673
19:00+20зюз2996100 0.4 1014631
22:00+20зюз2109599 0.1 1015619